Regional Weather Roundup
Issued by NWS

Home | Current Version | Previous Version | Text Only | Print | Product List | Glossary On
Versions: 1 2 3 4 5 6 7 8 9 10 11 12 13 14 15 16 17 18 19 20 21 22 23 24 25 26 27 28 29 30 31 32 33 34 35 36 37 38 39 40 41 42 43 44 45 46 47 48 49 50
000
ASUS44 KLUB 280710
RWRTX
WEST TEXAS WEATHER ROUNDUP
NATIONAL WEATHER SERVICE LUBBOCK TX
100 AM CST WED JAN 28 2015

NOTE: "FAIR" INDICATES FEW OR NO CLOUDS BELOW 12,000 FEET WITH NO
SIGNIFICANT WEATHER AND/OR OBSTRUCTIONS TO VISIBILITY.

TXZ004-006>008-010-012-014-016-OKZ002-280800-
TEXAS PANHANDLE/OKLAHOMA PANHANDLE

CITY           SKY/WX    TMP DP  RH WIND       PRES   REMARKS
AMARILLO       CLEAR     48  34  58 SW10      30.07F
BORGER         CLEAR     57  33  40 SW14      30.03F
CANADIAN       CLEAR     44  36  73 W6        30.02F
DALHART        CLEAR     41  35  79 SW8       30.04F
DUMAS          CLEAR     47  37  66 SW13      30.02F
GUYMON         CLEAR     44  35  70 S10       29.98F
HEREFORD       CLEAR     51  38  62 SW12      30.10F
PAMPA          CLEAR     46  34  65 S12       30.06F
PERRYTON         N/A     45  35  67 S10       30.00F
$$

TXZ026-029-035-045-048-280800-
SOUTHERN PANHANDLE/SOUTH PLAINS/ROLLING PLAINS

CITY           SKY/WX    TMP DP  RH WIND       PRES   REMARKS
CHILDRESS      CLEAR     55  35  47 SW13      30.07F
SEMINOLE       CLEAR     47  35  62 W7        30.16F
LUBBOCK        CLEAR     47  35  63 W9        30.12F
PLAINVIEW      CLEAR     41  33  74 SW8       30.10F
SNYDER         CLEAR    N/A N/A N/A S8        30.14F
$$

TXZ052-054-060>062-072-078-127-140-154-169-280800-
PERMIAN BASIN/CONCHO VALLEY/BIG COUNTRY/EDWARDS PLATEAU

CITY           SKY/WX    TMP DP  RH WIND       PRES   REMARKS
ABILENE        CLEAR     51  37  58 S8        30.12F
BIG SPRING     CLEAR     49  36  61 SE6       30.17S
BRADY          CLEAR     50  34  53 SW3       30.13F
BROWNWOOD      CLEAR     41  37  87 CALM      30.13F
JUNCTION       CLEAR     41  35  79 CALM      30.17S
MIDLAND        CLEAR     52  38  58 SW7       30.15F
ODESSA         CLEAR     54  35  48 S3        30.16F
SAN ANGELO     CLEAR     47  38  71 SW5       30.14S
SONORA         CLEAR     41  36  81 CALM      30.21S
SWEETWATER     CLEAR     53  35  49 S12       30.16F
WINK           CLEAR     45  34  65 NW3       30.15F
$$

TXZ055-058-074-075-080-082-280800-
FAR WEST/SOUTHWEST MOUNTAINS/TRANS PECOS

CITY           SKY/WX    TMP DP  RH WIND       PRES   REMARKS
ALPINE         PTCLDY    50  43  76 SW6       30.29F
DRYDEN           N/A     56  39  53 N5        30.14F
EL PASO        MOCLDY    50  41  71 E3        30.20F
FORT STOCKTON  CLEAR     56  44  64 SW14      30.17F
GUADALUPE PASS CLEAR     50  39  66 SW10      30.27S
MARFA          PTCLDY    39  37  93 N7        30.27F WCI  34
PECOS          PTCLDY    44  39  84 CALM      30.16S
PRESIDIO       FAIR      56  45  66 N10       30.18F
$$

TXZ014-016-019-021>030-083-280800
TEXAS TECH WEST TEXAS MESONET/TEXAS PANHANDLE/NORTHERN SOUTH PLAINS

CITY           SKY/WX    TMP DP  RH WIND       PRES   REMARKS
ABERNATHY 5ENE   N/A     43  34  72 SW9       30.13F
AMARILLO 9NNE    N/A     56  35  44 S17       30.04F
AMARILLO 7SSE    N/A     45  35  67 SW9       30.08F
AMHERST 1NE      N/A     48  32  53 SW13      30.13S
BOOTLEG 11WNW    N/A     48  37  65 SW16      30.12F
CANADIAN 6E      N/A     51  35  53 SW8       30.00F
CAPROCK CYN SP   N/A     57  32  39 SW12      30.08F
CLARENDON 2WSW   N/A     53  32  44 S14       30.07F
CLAUDE 12SW      N/A     55  31  39 SW6       30.08F
DIMMITT 2NE      N/A     49  33  52 SW16      30.11F
FLOYDADA 2NNE    N/A     46  32  56 SW10      30.11F
FRIONA 2NE       N/A     52  38  57 SW21      30.12F
GOODLETT 3W      N/A     48  35  60 SW7       30.06S
HART 3N          N/A     39  32  76 SW8       30.11F WCI  33
HEREFORD 2NW     N/A     49  35  57 SW13      30.09F
MCLEAN 1E        N/A     53  33  45 SW12      30.04F
MEMPHIS 1NE      N/A     41  34  74 NW2       30.06F
MULESHOE 2SSW    N/A     41  33  74 W9        30.14S
OLTON 6S         N/A     41  32  71 SW10      30.12F
PALO DURO SP     N/A     54  33  44 SW10      30.09F
PAMPA 2E         N/A     48  35  59 S10       30.05F
PLAINVIEW 1S     N/A     42  34  73 SW3       30.11F
SILVERTON 7ESE   N/A     43  33  68 SW7       30.10F
TULIA 2ENE       N/A     43  33  67 SW10      30.10F
TURKEY 2WSW      N/A     52  34  49 SW13      30.07F
UMBARGER 3NNE    N/A     45  35  68 SW12      30.08F
$$

TXZ033>036-039>041-045>048-280800
TEXAS TECH WEST TEXAS MESONET/SOUTH PLAINS

CITY           SKY/WX    TMP DP  RH WIND       PRES   REMARKS
AIKEN 3WSW       N/A     38  33  81 SW7       30.12F WCI  33
ANDREWS 2NE      N/A     52  35  51 SW7       30.16S
ANTON 6SSW       N/A     41  34  75 SW3       30.13F
BROWNFIELD 2S    N/A     45  35  67 W9        30.14F
DENVR CTY 7WNW   N/A     46  33  62 SW7       30.15F
GAIL 2ESE        N/A     50  34  54 SW9       30.12F
LAMESA 2SE       N/A     46  35  65 W8        30.15S
LEVELLAND 4S     N/A     46  35  63 SW9       30.13F
LUBBOCK 3WNW     N/A     50  34  54 W6        30.13F
MORTON 1ENE      N/A     44  34  65 W8        30.14F
ODONNELL 1N      N/A     42  34  71 W2        30.14F
PLAINS 3N        N/A     40  35  83 W8        30.15F WCI  35
RALLS 1SE        N/A     47  34  59 SW12      30.12F
REESE CENTER     N/A     42  34  73 SW7       30.13F
SEAGRAVES 1SW    N/A     41  35  78 SW6       30.15F
SEMINOLE 2NNE    N/A     47  35  61 W7        30.15F
SLATON 2NE       N/A     49  34  54 SW14      30.12F
SNYDER 3E        N/A     50  34  53 S7        30.13F
SUNDOWN 8SW      N/A     41  34  77 SW9       30.14F
TAHOKA 3NNE      N/A     44  34  66 W7        30.13F
WOLFFORTH 6SSW   N/A     41  35  80 SW6       30.14F
$$

TXZ031-032-036>038-042>044-280800-
TEXAS TECH WEST TEXAS MESONET/ROLLING PLAINS

CITY           SKY/WX    TMP DP  RH WIND       PRES   REMARKS
ASPERMONT 3NE    N/A     55  36  48 S12       30.09F
FLUVANNA 3WNW    N/A     51  31  46 S7        30.13S
GRAHAM 5SSW      N/A     50  33  53 W13       30.12F
GUTHRIE 10WSW    N/A     51  34  51 S7        30.09F
HASKELL 1NW      N/A     49  39  68 S7        30.10S
JAYTON 1SSE      N/A     50  33  52 SW5       30.10F
KNOX CITY 3NW    N/A     42  36  78 S3        30.09F
LK A HENRY 1NW   N/A     49  32  51 SW3       30.11F
NORTHFIELD 1S    N/A     49  36  61 SW8       30.07F
ODELL 4ENE       N/A     55  40  56 S10       30.07S
PADUCAH 10SW     N/A     55  34  45 SW12      30.07F
POST 1NE         N/A     51  34  51 SW13      30.11F
RRING SPRGS 3N   N/A     55  33  43 SW10      30.09F
SEYMOUR 3NW      N/A     49  39  67 SW6       30.08F
SPUR 1W          N/A     42  33  71 W1        30.10F
WEINERT 2NNE     N/A     46  39  77 S7        30.10S
WHITE RVR 6NE    N/A     55  32  42 SW6       30.11F
$$

TXZ052-054-060>062-072-078-127-140-154-169-280800-
TEXAS TECH WEST TEXAS MESONET/PERMIAN BASIN/
CONCHO VALLEY/BIG COUNTRY/EDWARDS PLATEAU

CITY           SKY/WX    TMP DP  RH WIND       PRES   REMARKS
COYANOSA 2N      N/A     46  40  81 SW3       30.15F
JUNCTION 1SSW    N/A     41  36  84 S2        30.17F
MERTZON 3NNE     N/A     43  37  79 S6        30.16F
SAN ANGELO 7NW   N/A     43  36  76 W6        30.14F
STRLNG CT 4WSW   N/A     43  36  75 E2        30.16S
ST LAWRNCE 5SW   N/A     48  36  63 SW8       30.16F
SWEETWATR 11SW   N/A     53  33  48 SE5       30.15S
WALL 1E          N/A     47  37  68 SW7       30.14F
$$

TXZ055-058-074-075-080-082-280800-
TEXAS TECH WEST TEXAS MESONET/FAR WEST/SOUTHWEST MOUNTAINS/TRANS PECOS

CITY           SKY/WX    TMP DP  RH WIND       PRES   REMARKS
PRSMN GAP BBNP   N/A     54  44  67 SW2       30.18S
GUADLPE MTN NP   N/A     50  38  63 SW7       30.26S
$$


USA.gov is the U.S. government's official web portal to all federal, state and local government web resources and services.